[[{"header":{"parameterUnit":"m.s-1","parameterCategory":1,"la1":30.2991,"la2":30.254,"lo1":-89.0895,"lo2":-89.0444,"dy":0.0017,"dx":0.0017,"nx":28,"ny":28,"refTime":"2024-06-21T21:00:00:Z","depth":0,"parameterNumber":2,"parameterNumberName":"U-component_of_WINDS"},"data":[0,0,0,0,0,0,0,0,0,0,0,0,0,0,0,0,0,0,0,0,0,0,0,0,0,0,0,0,0,0,0,0,0,0,0,0,0,0,0,0,0,0,0,0,0,0,0,0,0,0,0,0,0,0,0,0,0,0,-4.0553,-4.0553,0,-4.0473,-4.0472,-4.0471,-4.0324,-4.0322,-4.0319,-4.0316,-4.0237,-4.0238,-4.0238,0,0,0,0,0,0,0,0,0,0,0,0,0,-4.0585,-4.0585,-4.0554,-4.0553,-4.0552,-4.0473,-4.0472,-4.0471,-4.0325,-4.0321,-4.0318,-4.0315,-4.0237,-4.0238,-4.0238,0,0,0,0,0,0,0,0,0,0,0,0,0,-4.0545,-4.0585,-4.0554,-4.0469,-4.0461,-4.0474,-4.0472,-4.0471,-4.0326,-4.0321,-4.0317,-4.0313,-4.0237,-4.0238,-4.0238,-4.0329,0,0,-4.0241,-4.0241,0,0,0,0,0,0,0,0,-4.0547,-4.0544,-4.0482,-4.0475,-4.0465,-4.0404,-4.0454,-4.0423,-4.0327,-4.0377,-4.0316,-4.0311,-4.0297,-4.0292,-4.0287,-4.0325,-4.0321,-4.0241,-4.0242,-4.0242,-4.0242,0,0,0,0,0,0,0,-4.055,-4.0546,-4.0522,-4.0482,-4.0471,-4.0437,-4.0426,-4.0448,-4.0362,-4.0372,-4.0361,-4.0354,-4.0291,-4.0286,-4.0284,-4.032,-4.0241,-4.0242,-4.0242,-4.0243,-4.0431,-4.0435,0,0,0,0,0,0,-4.0565,-4.055,-4.0524,-4.0519,-4.0497,-4.044,-4.0428,-4.0428,-4.0361,-4.0347,-4.0357,-4.0347,-4.0287,-4.0283,-4.028,-4.0382,-4.0242,-4.0243,-4.0243,-4.0427,-4.0432,-4.0437,0,0,0,0,0,0,-4.0566,-4.0564,-4.0528,-4.0532,-4.0524,-4.0443,-4.0445,-4.0429,-4.0424,-4.035,-4.0334,-4.0368,-4.0283,-4.0279,-4.0318,-4.0378,-4.0243,-4.0244,-4.0421,-4.0428,-4.0434,-4.0587,0,0,0,0,0,0,-4.0568,-4.0565,-4.0597,-4.0533,-4.0525,-4.0566,-4.0449,-4.0431,-4.0425,-4.0411,-4.0355,-4.0342,-4.028,-4.0318,-4.0319,-4.0376,-4.0244,-4.0415,-4.0424,-4.0432,-4.0576,-4.0598,-4.0617,0,0,0,0,0,-4.0569,-4.0644,-4.06,-4.0597,-4.0563,-4.0569,-4.0564,-4.049,-4.0431,-4.0463,-4.0416,-4.0344,-4.0371,-4.0323,-4.0323,-4.0382,-4.0411,-4.0422,-4.0432,-4.0567,-4.0594,-4.0616,0,0,0,0,0,0,-4.0717,-4.0634,-4.0584,-4.064,-4.0613,-4.0544,-4.0582,-4.052,-4.051,-4.0497,-4.0407,-4.0396,-4.0447,-4.0418,-4.0365,-4.0466,-4.038,-4.0391,-4.0483,-4.0508,-4.0528,-4.0534,-4.0245,0,0,0,0,0,-4.0756,-4.0767,-4.0694,-4.075,-4.0739,-4.0664,-4.0664,-4.0609,-4.0578,-4.0566,-4.0521,-4.0495,-4.0498,-4.0501,-4.0499,-4.0572,-4.0559,-4.0613,-4.0633,-4.065,-4.066,-4.0699,-4.0722,-4.047,-4.047,-4.047,0,0,-4.0837,-4.0793,-4.0805,-4.0779,-4.0751,-4.0767,-4.0655,-4.0675,-4.0686,-4.0569,-4.0603,-4.057,-4.0535,-4.0592,-4.0614,-4.0569,-4.0727,-4.0663,-4.0677,-4.0678,-4.0711,-4.0735,-4.0757,-4.0477,-4.0476,-4.0475,0,0,-4.0992,-4.0959,-4.1003,-4.0978,-4.0938,-4.0888,-4.0899,-4.0841,-4.0814,-4.0846,-4.076,-4.0772,-4.0778,-4.0757,-4.0747,-4.0898,-4.0832,-4.09,-4.1006,-4.1044,-4.1064,-4.1081,-4.1136,-4.1157,-4.0911,-4.0911,-4.0911,0,-4.1097,-4.1115,-4.1034,-4.106,-4.1052,-4.0947,-4.0992,-4.0972,-4.0935,-4.0932,-4.0882,-4.0889,-4.0858,-4.0909,-4.0946,-4.0941,-4.0952,-4.0905,-4.1068,-4.1084,-4.1099,-4.115,-4.1171,-4.092,-4.0919,-4.0918,-4.0917,0,-4.1248,-4.1262,-4.1302,-4.1268,-4.1264,-4.13,-4.1226,-4.1233,-4.118,-4.1136,-4.1172,-4.1131,-4.112,-4.1128,-4.1076,-4.1173,-4.1147,-4.1084,-4.0995,-4.1133,-4.118,-4.1199,-4.0932,-4.0929,-4.0926,-4.0924,0,0,-4.1491,-4.1413,-4.1429,-4.1413,-4.1363,-4.1373,-4.1405,-4.1394,-4.1402,-4.1381,-4.1406,-4.1415,-4.1357,-4.1347,-4.1292,-4.1326,-4.145,-4.1258,-4.1256,-4.1296,-4.1556,-4.1603,-4.1627,-4.1406,-4.1409,-4.1412,-4.1559,0,-4.1635,-4.1683,-4.1613,-4.1678,-4.1691,-4.1594,-4.1622,-4.1596,-4.1556,-4.1563,-4.152,-4.1528,-4.145,-4.1443,-4.1472,-4.1428,-4.15,-4.1417,-4.143,-4.1432,-4.1442,-4.1651,-4.1701,-4.1842,-4.1577,-4.158,-4.1582,0,-4.1808,-4.1795,-4.1862,-4.1809,-4.1812,-4.1839,-4.1824,-4.1831,-4.18,-4.1769,-4.1759,-4.1694,-4.1724,-4.1639,-4.1681,-4.1625,-4.1627,-4.1607,-4.1611,-4.1609,-4.1515,-4.1656,-4.1884,-4.1906,-4.161,-4.1607,-4.1605,0,-4.198,-4.1979,-4.2019,-4.2009,-4.1948,-4.197,-4.1946,-4.191,-4.1909,-4.1897,-4.1896,-4.1888,-4.1884,-4.1881,-4.1816,-4.176,-4.1867,-4.1775,-4.1843,-4.1845,-4.1869,-4.1868,-4.2102,-4.1871,-4.1871,-4.187,-4.187,0,-4.2148,-4.2193,-4.2096,-4.2121,-4.2169,-4.2089,-4.214,-4.2106,-4.2077,-4.2095,-4.201,-4.203,-4.1943,-4.1954,-4.1905,-4.1947,-4.1946,-4.1923,-4.191,-4.1931,-4.1934,-4.193,-4.1919,-4.1876,-4.1874,-4.1873,-4.1872,0,-4.2347,-4.2284,-4.2322,-4.2262,-4.2248,-4.2287,-4.2237,-4.2258,-4.2214,-4.2239,-4.224,-4.2172,-4.218,-4.2116,-4.2113,-4.2079,-4.2146,-4.2115,-4.2156,-4.2147,-4.2218,-4.2213,-4.2457,-4.2486,-4.2238,-4.224,-4.2242,0,-4.2458,-4.249,-4.2435,-4.2441,-4.2421,-4.2431,-4.243,-4.2353,-4.2356,-4.2324,-4.2351,-4.2352,-4.2349,-4.2368,-4.2319,-4.2317,-4.2285,-4.2372,-4.2284,-4.2306,-4.2288,-4.2286,-4.229,-4.239,-4.2393,-4.2395,-4.2397,0,-4.2662,-4.263,-4.263,-4.2621,-4.2621,-4.261,-4.2594,-4.2604,-4.2521,-4.2528,-4.2536,-4.2534,-4.2531,-4.2534,-4.2523,-4.25,-4.2436,-4.2426,-4.2441,-4.2463,-4.2485,-4.2475,-4.2206,-4.242,-4.2418,-4.2416,-4.2415,-4.2414,-4.282,-4.2845,-4.2811,-4.2815,-4.2795,-4.2782,-4.28,-4.2759,-4.2763,-4.2754,-4.271,-4.2726,-4.2697,-4.2675,-4.2659,-4.2672,-4.263,-4.2653,-4.2658,-4.2665,-4.2678,-4.2484,-4.2669,-4.2669,-4.2668,-4.2667,-4.2667,0,-4.302,-4.2994,-4.2998,-4.2978,-4.2982,-4.2922,-4.2901,-4.2909,-4.2924,-4.2902,-4.2901,-4.2911,-4.2915,-4.2868,-4.2866,-4.2885,-4.2856,-4.2887,-4.2885,-4.2881,-4.2715,-4.2702,-4.2911,-4.2911,-4.2911,-4.2911,-4.2911,-4.2911,-4.3125,-4.3164,-4.3129,-4.3159,-4.3132,-4.3146,-4.314,-4.3129,-4.3111,-4.3126,-4.3128,-4.3097,-4.3066,-4.3062,-4.3063,-4.3049,-4.3053,-4.3094,-4.3071,-4.2916,-4.2893,-4.287,-4.2857,-4.3096,-4.3096,-4.3236,-4.3237,-4.3238]},{"header":{"parameterUnit":"m.s-1","parameterCategory":1,"la1":30.2991,"la2":30.254,"lo1":-89.0895,"lo2":-89.0444,"dy":0.0017,"dx":0.0017,"nx":28,"ny":28,"refTime":"2024-06-21T21:00:00:Z","depth":0,"parameterNumber":3,"parameterNumberName":"V-component_of_WINDS"},"data":[0,0,0,0,0,0,0,0,0,0,0,0,0,0,0,0,0,0,0,0,0,0,0,0,0,0,0,0,0,0,0,0,0,0,0,0,0,0,0,0,0,0,0,0,0,0,0,0,0,0,0,0,0,0,0,0,0,0,3.6541,3.6541,0,3.6462,3.6461,3.646,3.6425,3.6425,3.6425,3.6425,3.6334,3.6332,3.6329,0,0,0,0,0,0,0,0,0,0,0,0,0,3.6656,3.6655,3.6541,3.654,3.654,3.6462,3.6461,3.646,3.6425,3.6425,3.6425,3.6425,3.6335,3.6332,3.6329,0,0,0,0,0,0,0,0,0,0,0,0,0,3.6594,3.6654,3.6542,3.6513,3.651,3.6462,3.6461,3.6459,3.6425,3.6425,3.6425,3.6425,3.6336,3.6332,3.6328,3.6301,0,0,3.6317,3.6315,0,0,0,0,0,0,0,0,3.6598,3.659,3.6518,3.6515,3.6511,3.6454,3.6468,3.6406,3.6424,3.6456,3.6425,3.6425,3.6373,3.6366,3.635,3.6296,3.6293,3.6316,3.6314,3.6312,3.6311,0,0,0,0,0,0,0,3.6602,3.6593,3.651,3.6517,3.6513,3.6502,3.6493,3.6456,3.6414,3.6454,3.6451,3.6443,3.6371,3.6354,3.6348,3.6291,3.6316,3.6313,3.6311,3.6309,3.6211,3.6211,0,0,0,0,0,0,3.6612,3.6597,3.6512,3.6507,3.6556,3.6499,3.649,3.6472,3.6415,3.6406,3.6442,3.6441,3.6361,3.6353,3.6345,3.6309,3.6312,3.6309,3.6307,3.6212,3.6211,3.6211,0,0,0,0,0,0,3.6615,3.6605,3.6515,3.6552,3.6539,3.6497,3.6477,3.647,3.6453,3.6406,3.6398,3.6433,3.636,3.635,3.6313,3.6305,3.6307,3.6304,3.6212,3.6211,3.6211,3.6237,0,0,0,0,0,0,3.6619,3.6606,3.6597,3.6552,3.6538,3.6487,3.6477,3.6468,3.6448,3.6445,3.6396,3.6387,3.636,3.6319,3.6309,3.63,3.6301,3.6212,3.6212,3.6211,3.6237,3.6238,3.6239,0,0,0,0,0,3.6623,3.6605,3.6597,3.6586,3.6525,3.6487,3.6478,3.645,3.6447,3.6436,3.6407,3.6389,3.6308,3.6315,3.6304,3.6294,3.6213,3.6212,3.6211,3.6236,3.6238,3.6239,0,0,0,0,0,0,3.6647,3.6599,3.6588,3.6556,3.6526,3.6481,3.6466,3.6451,3.6419,3.6418,3.6381,3.637,3.6336,3.6311,3.632,3.6264,3.6259,3.6256,3.6282,3.6282,3.6283,3.6289,3.6298,0,0,0,0,0,3.6649,3.6624,3.6582,3.6558,3.6544,3.6508,3.649,3.6471,3.6437,3.6423,3.639,3.6356,3.6323,3.6301,3.6268,3.6234,3.6222,3.6221,3.6222,3.6223,3.622,3.6201,3.62,3.6209,3.6209,3.6209,0,0,3.6651,3.6622,3.6608,3.6562,3.6536,3.651,3.6497,3.6469,3.6448,3.6417,3.6381,3.6357,3.6315,3.628,3.6262,3.6258,3.6216,3.6222,3.6223,3.622,3.62,3.6199,3.6199,3.6208,3.6208,3.6208,0,0,3.6643,3.6619,3.6597,3.6573,3.6536,3.6512,3.6507,3.6465,3.6448,3.6412,3.6389,3.6363,3.6307,3.6279,3.6257,3.6242,3.6224,3.6232,3.6235,3.6217,3.6216,3.6215,3.6209,3.6208,3.6229,3.6229,3.6229,0,3.665,3.6612,3.6586,3.656,3.654,3.6516,3.6492,3.6469,3.6421,3.6407,3.6404,3.6335,3.6305,3.6263,3.626,3.6243,3.6235,3.6236,3.6219,3.6218,3.6216,3.621,3.6208,3.6231,3.623,3.623,3.623,0,3.6622,3.6596,3.6582,3.6541,3.652,3.6495,3.6464,3.6444,3.6428,3.6405,3.6368,3.6333,3.6293,3.6282,3.6264,3.6237,3.6236,3.6226,3.622,3.6217,3.6211,3.6208,3.6232,3.6232,3.6232,3.6231,0,0,3.6624,3.6572,3.6567,3.6549,3.6508,3.6486,3.646,3.6424,3.6409,3.6377,3.6353,3.6308,3.63,3.6276,3.6255,3.6239,3.6229,3.6231,3.6229,3.6231,3.6197,3.6204,3.6202,3.6218,3.6217,3.6217,3.6201,0,3.6609,3.6565,3.6542,3.6506,3.6481,3.6459,3.6436,3.6407,3.6385,3.6359,3.6334,3.6302,3.6294,3.6279,3.6263,3.6234,3.6221,3.6235,3.6193,3.6192,3.6203,3.6199,3.6205,3.6192,3.6198,3.6198,3.6197,0,3.6585,3.6559,3.6522,3.6486,3.6474,3.6454,3.6421,3.6397,3.6363,3.6349,3.6324,3.6304,3.6274,3.6271,3.6229,3.6238,3.622,3.6204,3.6202,3.6196,3.6193,3.6191,3.6186,3.6184,3.6193,3.6193,3.6194,0,3.659,3.6544,3.6517,3.6502,3.6459,3.6446,3.6426,3.6394,3.6375,3.6345,3.6332,3.6297,3.6278,3.6251,3.6222,3.6223,3.6182,3.6177,3.6167,3.6168,3.6158,3.6158,3.6149,3.6148,3.6148,3.6148,3.6148,0,3.6575,3.6553,3.6518,3.6501,3.6475,3.645,3.6424,3.6403,3.6375,3.6352,3.633,3.6308,3.6272,3.6245,3.6222,3.619,3.6181,3.6167,3.6161,3.6168,3.617,3.6154,3.6154,3.6148,3.6148,3.6148,3.6148,0,3.6574,3.6551,3.6519,3.6483,3.6473,3.6456,3.6424,3.6405,3.6384,3.6355,3.6346,3.6311,3.6279,3.6248,3.6203,3.6188,3.6156,3.6148,3.6168,3.6165,3.6157,3.6158,3.6136,3.6131,3.6135,3.6135,3.6135,0,3.6566,3.6549,3.6513,3.6497,3.648,3.6455,3.6437,3.641,3.6391,3.6354,3.634,3.6307,3.6279,3.6228,3.6197,3.6163,3.6154,3.6149,3.6148,3.6157,3.6153,3.6154,3.6152,3.6149,3.6149,3.6149,3.6149,0,3.6553,3.6543,3.6519,3.6491,3.6471,3.6447,3.6422,3.641,3.6378,3.6358,3.6327,3.6306,3.6263,3.623,3.6193,3.6171,3.6154,3.615,3.6146,3.6152,3.6164,3.6157,3.6169,3.615,3.615,3.615,3.615,3.615,3.6548,3.6532,3.6505,3.6479,3.6459,3.6436,3.6418,3.6396,3.6371,3.6336,3.6322,3.629,3.6258,3.6208,3.6186,3.616,3.6155,3.6149,3.6148,3.6146,3.6148,3.6171,3.6153,3.6153,3.6152,3.6152,3.6152,0,3.6533,3.6516,3.6493,3.646,3.644,3.6431,3.6403,3.6386,3.6359,3.6333,3.6307,3.6272,3.624,3.6209,3.6175,3.616,3.6151,3.6152,3.6151,3.6147,3.6153,3.616,3.6159,3.6159,3.6159,3.6159,3.6159,3.6159,3.6523,3.6497,3.6484,3.6448,3.6429,3.6401,3.6386,3.6365,3.6344,3.6307,3.6282,3.6263,3.6234,3.6199,3.6169,3.6161,3.6149,3.6151,3.614,3.6146,3.6146,3.6146,3.6152,3.6149,3.6149,3.6135,3.6135,3.6135]}]]